timestamp,surface_pressure_avg,surface_temp_avg,battery_voltage,lat,long
2018-06-07 00:00:00+00:00,226.4681,2.9,13.29,47.84626,-54.09684
2018-06-07 00:10:00+00:00,231.8431,2.92,13.21,47.84626,-54.09684
2018-06-07 00:20:00+00:00,239.7314,2.98,13.21,47.84626,-54.09684
2018-06-07 00:30:00+00:00,246.1598,2.9,13.21,47.84626,-54.09684
2018-06-07 00:40:00+00:00,248.9731,2.9,13.21,47.84626,-54.09684
2018-06-07 00:50:00+00:00,250.6697,2.9,13.21,47.84626,-54.09684
2018-06-07 01:00:00+00:00,252.0564,3.0,13.13,47.84626,-54.09684
2018-06-07 01:10:00+00:00,251.4315,3.0,13.05,47.84626,-54.09684
2018-06-07 01:20:00+00:00,250.533,3.1,13.05,47.84626,-54.09684
2018-06-07 01:30:00+00:00,257.4697,3.25,13.05,47.84626,-54.09684
2018-06-07 01:40:00+00:00,266.4197,3.0,13.05,47.84626,-54.09684
2018-06-07 01:50:00+00:00,270.0081,2.9,13.05,47.84626,-54.09684
2018-06-07 02:00:00+00:00,266.3431,2.9,13.05,47.84626,-54.09684
2018-06-07 02:10:00+00:00,273.5297,2.9,12.97,47.84626,-54.09684
2018-06-07 02:20:00+00:00,282.4514,2.9,13.05,47.84626,-54.09684
2018-06-07 02:30:00+00:00,286.9464,2.92,13.05,47.84626,-54.09684
2018-06-07 02:40:00+00:00,287.0613,2.92,13.05,47.84626,-54.09684
2018-06-07 02:50:00+00:00,291.9713,2.9,13.05,47.84626,-54.09684
2018-06-07 03:00:00+00:00,292.233,2.9,12.97,47.84626,-54.09684
2018-06-07 03:10:00+00:00,295.8414,2.9,12.89,47.84626,-54.09684
2018-06-07 03:20:00+00:00,303.4979,2.9,12.97,47.84626,-54.09684
2018-06-07 03:30:00+00:00,310.7397,2.9,12.97,47.84626,-54.09684
2018-06-07 03:40:00+00:00,311.9347,2.93,12.97,47.84626,-54.09684
2018-06-07 03:50:00+00:00,317.938,2.96,13.05,47.84626,-54.09684
2018-06-07 04:00:00+00:00,321.588,2.9,12.97,47.84626,-54.09684
2018-06-07 04:10:00+00:00,324.8264,2.9,12.89,47.84626,-54.09684
2018-06-07 04:20:00+00:00,326.0129,2.82,12.97,47.84626,-54.09684
2018-06-07 04:30:00+00:00,331.3846,2.86,12.97,47.84626,-54.09684
2018-06-07 04:40:00+00:00,330.3563,2.9,12.97,47.84626,-54.09684
2018-06-07 04:50:00+00:00,331.4163,2.89,12.97,47.84626,-54.09684
2018-06-07 05:00:00+00:00,331.5212,2.84,12.89,47.84626,-54.09684
2018-06-07 05:10:00+00:00,335.2529,2.8,12.89,47.84626,-54.09684
2018-06-07 05:20:00+00:00,340.743,2.81,12.89,47.84626,-54.09684
2018-06-07 05:30:00+00:00,346.293,2.8,12.97,47.84626,-54.09684
2018-06-07 05:40:00+00:00,342.838,2.88,12.97,47.84626,-54.09684
2018-06-07 05:50:00+00:00,339.8096,2.9,12.97,47.84626,-54.09684
2018-06-07 06:00:00+00:00,336.8063,2.9,12.89,47.84626,-54.09684
2018-06-07 06:10:00+00:00,340.2497,2.8,12.81,47.84626,-54.09684
2018-06-07 06:20:00+00:00,336.6013,2.84,12.89,47.84626,-54.09684
2018-06-07 06:30:00+00:00,328.9596,2.86,12.89,47.84626,-54.09684
2018-06-07 06:40:00+00:00,335.528,2.83,12.89,47.84626,-54.09684
2018-06-07 06:50:00+00:00,341.6997,2.8,12.97,47.84626,-54.09684
2018-06-07 07:00:00+00:00,332.6613,2.86,12.89,47.84626,-54.09684
2018-06-07 07:10:00+00:00,318.998,2.9,12.81,47.84626,-54.09684
2018-06-07 07:20:00+00:00,324.9347,2.9,12.89,47.84626,-54.09684
2018-06-07 07:30:00+00:00,328.5413,2.85,12.89,47.84626,-54.09684
2018-06-07 07:40:00+00:00,311.793,2.9,12.89,47.84626,-54.09684
2018-06-07 07:50:00+00:00,302.3214,2.89,12.89,47.84626,-54.09684
2018-06-07 08:00:00+00:00,305.5563,2.8,12.89,47.84626,-54.09684
2018-06-07 08:10:00+00:00,303.9396,2.82,12.81,47.84626,-54.09684
2018-06-07 08:20:00+00:00,292.1597,2.89,12.89,47.84626,-54.09684
2018-06-07 08:30:00+00:00,289.3531,2.79,12.89,47.84626,-54.09684
2018-06-07 08:40:00+00:00,285.0447,2.8,12.89,47.84626,-54.09684
2018-06-07 08:50:00+00:00,273.8763,2.84,12.97,47.84626,-54.09684
2018-06-07 09:00:00+00:00,262.1448,2.9,12.89,47.84626,-54.09684
2018-06-07 09:10:00+00:00,258.0598,2.9,12.81,47.84626,-54.09684
2018-06-07 09:20:00+00:00,257.3698,2.9,12.97,47.84626,-54.09684
2018-06-07 09:30:00+00:00,253.2064,2.9,13.05,47.84626,-54.09684
2018-06-07 09:40:00+00:00,244.3164,2.9,13.05,47.84626,-54.09684
2018-06-07 09:50:00+00:00,238.4114,2.92,13.13,47.84626,-54.09684
2018-06-07 10:00:00+00:00,241.0931,2.9,13.13,47.84626,-54.09684
2018-06-07 10:10:00+00:00,241.2997,2.9,13.13,47.84626,-54.09684
2018-06-07 10:20:00+00:00,234.0681,2.92,13.29,47.84626,-54.09684
2018-06-07 10:30:00+00:00,231.3665,2.99,13.37,47.84626,-54.09684
2018-06-07 10:40:00+00:00,236.6131,2.97,13.53,47.84626,-54.09684
2018-06-07 10:50:00+00:00,234.5448,2.93,13.68,47.84626,-54.09684
2018-06-07 11:00:00+00:00,230.2664,2.97,13.68,47.84626,-54.09684
2018-06-07 11:10:00+00:00,235.6264,2.9,13.68,47.84626,-54.09684
2018-06-07 11:20:00+00:00,237.1798,2.9,13.84,47.84626,-54.09684
2018-06-07 11:30:00+00:00,231.1631,2.9,13.92,47.84626,-54.09684
2018-06-07 11:40:00+00:00,231.4831,2.9,14.0,47.84626,-54.09684
2018-06-07 11:50:00+00:00,239.0964,2.8,14.16,47.84626,-54.09684
2018-06-07 12:00:00+00:00,236.0798,2.9,14.16,47.84626,-54.09684
2018-06-07 12:10:00+00:00,231.6914,2.9,14.08,47.84626,-54.09684
2018-06-07 12:20:00+00:00,234.1414,2.8,14.32,47.84626,-54.09684
2018-06-07 12:30:00+00:00,237.3231,2.8,14.32,47.84626,-54.09684
2018-06-07 12:40:00+00:00,235.6381,2.9,14.4,47.84626,-54.09684
2018-06-07 12:50:00+00:00,233.5448,2.97,14.48,47.84626,-54.09684
2018-06-07 13:00:00+00:00,236.5031,2.88,14.4,47.84626,-54.09684
2018-06-07 13:10:00+00:00,242.2781,2.8,14.32,47.84626,-54.09684
2018-06-07 13:20:00+00:00,243.5914,2.89,14.48,47.84626,-54.09684
2018-06-07 13:30:00+00:00,246.3131,2.8,14.4,47.84626,-54.09684
2018-06-07 13:40:00+00:00,249.5464,2.85,14.48,47.84626,-54.09684
2018-06-07 13:50:00+00:00,249.9398,2.92,14.48,47.84626,-54.09684
2018-06-07 14:00:00+00:00,247.8297,2.9,14.48,47.84626,-54.09684
2018-06-07 14:10:00+00:00,250.5831,2.88,14.48,47.84626,-54.09684
2018-06-07 14:20:00+00:00,253.8281,2.8,14.96,47.84626,-54.09684
2018-06-07 14:30:00+00:00,253.0414,2.9,15.2,47.84626,-54.09684
2018-06-07 14:40:00+00:00,253.483,2.89,15.04,47.84626,-54.09684
2018-06-07 14:50:00+00:00,253.813,2.82,14.72,47.84626,-54.09684
2018-06-07 15:00:00+00:00,255.2397,2.8,14.64,47.84626,-54.09684
2018-06-07 15:10:00+00:00,259.0865,2.78,14.56,47.84626,-54.09684
2018-06-07 15:20:00+00:00,267.5281,2.7,14.64,47.84626,-54.09684
2018-06-07 15:30:00+00:00,275.5847,2.7,14.72,47.84626,-54.09684
2018-06-07 15:40:00+00:00,280.0081,2.7,14.8,47.84626,-54.09684
2018-06-07 15:50:00+00:00,283.0064,2.7,14.96,47.84626,-54.09684
2018-06-07 16:00:00+00:00,289.2163,2.7,14.56,47.84626,-54.09684
2018-06-07 16:10:00+00:00,294.5197,2.7,14.48,47.84626,-54.09684
2018-06-07 16:20:00+00:00,293.5564,2.74,14.56,47.84626,-54.09684
2018-06-07 16:30:00+00:00,294.088,2.77,14.4,47.84626,-54.09684
2018-06-07 16:40:00+00:00,305.458,2.8,14.4,47.84626,-54.09684
2018-06-07 16:50:00+00:00,310.2947,2.8,14.48,47.84626,-54.09684
2018-06-07 17:00:00+00:00,304.563,2.8,14.48,47.84626,-54.09684
2018-06-07 17:10:00+00:00,309.1514,2.8,14.4,47.84626,-54.09684
2018-06-07 17:20:00+00:00,317.0013,2.7,14.56,47.84626,-54.09684
2018-06-07 17:30:00+00:00,315.158,2.78,14.48,47.84626,-54.09684
2018-06-07 17:40:00+00:00,312.3214,2.73,14.48,47.84626,-54.09684
2018-06-07 17:50:00+00:00,318.6613,2.7,14.56,47.84626,-54.09684
2018-06-07 18:00:00+00:00,319.423,2.7,14.4,47.84626,-54.09684
2018-06-07 18:10:00+00:00,313.3529,2.77,14.32,47.84626,-54.09684
2018-06-07 18:20:00+00:00,312.9514,2.8,14.32,47.84626,-54.09684
2018-06-07 18:30:00+00:00,320.028,2.8,14.24,47.84626,-54.09684
2018-06-07 18:40:00+00:00,319.7013,2.8,14.24,47.84626,-54.09684
2018-06-07 18:50:00+00:00,313.8263,2.8,14.24,47.84626,-54.09684
2018-06-07 19:00:00+00:00,313.263,2.8,14.16,47.84626,-54.09684
2018-06-07 19:10:00+00:00,311.3746,2.8,14.08,47.84626,-54.09684
2018-06-07 19:20:00+00:00,305.9097,2.86,14.08,47.84626,-54.09684
2018-06-07 19:30:00+00:00,305.253,2.9,14.08,47.84626,-54.09684
2018-06-07 19:40:00+00:00,307.2797,2.9,14.08,47.84626,-54.09684
2018-06-07 19:50:00+00:00,303.208,2.9,14.08,47.84626,-54.09684
2018-06-07 20:00:00+00:00,296.3914,2.9,14.0,47.84626,-54.09684
2018-06-07 20:10:00+00:00,297.3981,2.9,13.92,47.84626,-54.09684
2018-06-07 20:20:00+00:00,294.6014,2.9,14.0,47.84626,-54.09684
2018-06-07 20:30:00+00:00,282.3914,2.9,14.0,47.84626,-54.09684
2018-06-07 20:40:00+00:00,277.6998,2.9,14.0,47.84626,-54.09684
2018-06-07 20:50:00+00:00,280.7547,2.8,14.0,47.84626,-54.09684
2018-06-07 21:00:00+00:00,274.8713,2.89,14.0,47.84626,-54.09684
2018-06-07 21:10:00+00:00,259.0348,2.9,13.92,47.84626,-54.09684
2018-06-07 21:20:00+00:00,256.108,2.89,13.92,47.84626,-54.09684
2018-06-07 21:30:00+00:00,258.7881,2.8,13.92,47.84626,-54.09684
2018-06-07 21:40:00+00:00,253.2448,2.8,13.92,47.84626,-54.09684
2018-06-07 21:50:00+00:00,246.9847,2.8,13.92,47.84626,-54.09684
2018-06-07 22:00:00+00:00,250.5964,2.8,13.84,47.84626,-54.09684
2018-06-07 22:10:00+00:00,247.2831,2.8,13.68,47.84626,-54.09684
2018-06-07 22:20:00+00:00,234.5698,2.8,13.68,47.84626,-54.09684
2018-06-07 22:30:00+00:00,231.688,2.78,13.68,47.84626,-54.09684
2018-06-07 22:40:00+00:00,234.2548,2.7,13.68,47.84626,-54.09684
2018-06-07 22:50:00+00:00,230.8847,2.7,13.6,47.84626,-54.09684
2018-06-07 23:00:00+00:00,225.7964,2.7,13.53,47.84626,-54.09684
2018-06-07 23:10:00+00:00,226.4514,2.67,13.37,47.84626,-54.09684
2018-06-07 23:20:00+00:00,226.7431,2.6,13.37,47.84626,-54.09684
2018-06-07 23:30:00+00:00,221.4564,2.6,13.37,47.84626,-54.09684
2018-06-07 23:40:00+00:00,218.3864,2.6,13.29,47.84626,-54.09684
2018-06-07 23:50:00+00:00,220.0414,2.6,13.29,47.84626,-54.09684
